Participated 1 time
in 1952
Alexandre Sowa, Poland
Tour de France 2026 starts from Edinburgh, Scotland in

Stats and Facts from
Tour de France.

2026   2025   2024   2023  2022  2021  2020  2019   2018  2017   2016   2015  2014  2013   2012   2011  2010   2009   2008   2007   2006   2005   2004   2003   2002   2001   2000   1999   1998   1997  1996   1995   1994   1993   1992  1991   1990   1989   1988   1987   1986   1985   1984   1983  1982  1981   1980   1979  1978  1977   1976  1975  1974  1973   1972   1971   1970  1969   1968   1967   1966   1965  1964  1963   1962   1961   1960   1959   1958   1957  1956   1955   1954   1953   1952  1951  1950  1949   1948  1947  1939   1938   1937   1936   1935   1934   1933  1932   1931   1930  1929   1928   1927   1926  1925  1924  1923   1922   1921   1920   1919  1914   1913   1912   1911   1910  1909   1908   1907   1906  1905  1904   1903 

Tourstats
Sitemap

After stage 21 - 2026:
 16451 starters.
  5513 different riders.
  689 teams.
  2419 stages.
  470 restdays.
  469752.50 km.
  5946 abandoned riders.

Click map for 2001 route.
Facts from Tour de France 2001
  |   Stages.  |   Stage winners.  |   Days in jerseys.  |   Teams.  |   All riders.  |   All riders by age.  |   All riders from.  |  

  |   Rookies.  |   Withdrawls.  |   Average speed.  |   GC.  |   Polka  |   Green  |   White  |   Summits. (In tour)  |   Miscellaneous.  |  

Stage 10 on July 17th. 2001
Pick a stage:  Pro  1  2  3  4  5  6  7  8  9  10  11  12  13  14  15  16  17  18  19  20  

After stage 10:    François Simon  
  Aix-les-BainsAlpe-d´Huez | Dist: 209.00km. | Winner: Lance Armstrong

Podium
3  Frene Eladio Jimenezafter40.50 km.

HC  Col de la Madeleine Laurent Rouxafter114.00 km.

HC  Col du Glandon Laurent Rouxafter156.50 km.

HC  Alpe d'Huez Lance Armstrongafter209.00 km.


Average speed for all riders in stage:  30,403 km./hr.

1
 Lance Armstrong  US Postal Service06h 23' 47"=32,675  km/h

2
 Jan Ullrich  Deutsche Telekom06h 25' 46"+  00:01:59 =32,507  km/h

3
 Joseba Beloki  O.N.C.E.-Eroski06h 25' 56"+  00:02:09 =32,493  km/h

4  Christophe Moreau  Festina06h 26' 17"+  00:02:30 =32,463  km/h

5  Óscar Sevilla  Kelme-Costa Blanca06h 26' 41"+  00:02:54 =32,430  km/h

6  Francisco Mancebo  ibanesto.com06h 27' 48"+  00:04:01 =32,336  km/h

7  Laurent Roux  Jean Delatour06h 27' 50"+  00:04:03 =32,333  km/h

8  Igor González De Galdeano  O.N.C.E.-Eroski06h 27' 50"+  00:04:03 =32,333  km/h

9  Roberto Laiseka  Euskaltel-Euskadi06h 27' 50"+  00:04:03 =32,333  km/h

10  Leonardo Piepoli  ibanesto.com06h 27' 54"+  00:04:07 =32,328  km/h

11  Michael Boogerd  Rabobank06h 28' 24"+  00:04:37 =32,286  km/h

12  Andrei Kivilev  Cofidis Credit Par Telephone06h 28' 26"+  00:04:39 =32,284  km/h

13  Santiago Botero  Kelme-Costa Blanca06h 28' 54"+  00:05:07 =32,245  km/h

14  Sven Montgomery  Francaise Des Jeux06h 28' 56"+  00:05:09 =32,242  km/h

15  Didier Rous  Bonjour06h 29' 05"+  00:05:18 =32,230  km/h

16  Axel Merckx  Domo-Farm Frites06h 30' 05"+  00:06:18 =32,147  km/h

17  Marcos Serrano  O.N.C.E.-Eroski06h 30' 05"+  00:06:18 =32,147  km/h

18  Wladimir Belli  Fassa Bortolo06h 30' 05"+  00:06:18 =32,147  km/h

19  Guennadi Mikhailov  Lotto-Adecco06h 30' 52"+  00:07:05 =32,083  km/h

20  Stefano Garzelli  Mapei-Quick Step06h 31' 41"+  00:07:54 =32,016  km/h

21  Alexandre Botcharov  AG2R-Decathlon06h 32' 22"+  00:08:35 =31,960  km/h

22  José Enrique Gutierrez  Kelme-Costa Blanca06h 32' 26"+  00:08:39 =31,954  km/h

23  Iñigo Chaurreau  Euskaltel-Euskadi06h 32' 32"+  00:08:45 =31,946  km/h

24  Roberto Heras  US Postal Service06h 32' 32"+  00:08:45 =31,946  km/h

25  Daniel Atienza  Cofidis Credit Par Telephone06h 32' 45"+  00:08:58 =31,929  km/h

26  Kurt Van De Wouwer  Lotto-Adecco06h 34' 07"+  00:10:20 =31,818  km/h

27  Jonathan Vaughters  Credit Agricole06h 34' 07"+  00:10:20 =31,818  km/h

28  Andréas  Klöden  Deutsche Telekom06h 34' 07"+  00:10:20 =31,818  km/h

29  François Simon  Bonjour06h 34' 07"+  00:10:20 =31,818  km/h

30  Guido Trentin  Cofidis Credit Par Telephone06h 34' 07"+  00:10:20 =31,818  km/h

31  Santiago Blanco  ibanesto.com06h 34' 07"+  00:10:20 =31,818  km/h

32  Carlos Sastre  O.N.C.E.-Eroski06h 34' 07"+  00:10:20 =31,818  km/h

33  Grischa Niermann  Rabobank06h 34' 48"+  00:11:01 =31,763  km/h

34  Laurent Jalabert  CSC-Tiscali06h 34' 48"+  00:11:01 =31,763  km/h

35  Alexandre Vinokourov  Deutsche Telekom06h 34' 48"+  00:11:01 =31,763  km/h

36  Thomasz Broźyna  ibanesto.com06h 35' 39"+  00:11:52 =31,695  km/h

37  José-Luis Rubiera  US Postal Service06h 37' 12"+  00:13:25 =31,571  km/h

38  Maarten Den Bakker  Rabobank06h 38' 04"+  00:14:17 =31,502  km/h

39  David Etxebarria  Euskaltel-Euskadi06h 38' 06"+  00:14:19 =31,500  km/h

40  Sylvain Chavanel  Bonjour06h 38' 24"+  00:14:37 =31,476  km/h

41  Denis Menchov  ibanesto.com06h 40' 15"+  00:16:28 =31,330  km/h

42  Marco Pinotti  Lampre-Daikin06h 41' 14"+  00:17:27 =31,254  km/h

43  Kevin Livingston  Deutsche Telekom06h 41' 16"+  00:17:29 =31,251  km/h

44  Stive Vermaut  Lotto-Adecco06h 42' 38"+  00:18:51 =31,145  km/h

45  Walter Bénéteau  Bonjour06h 43' 18"+  00:19:31 =31,093  km/h

46  Laurent Brochard  Jean Delatour06h 43' 44"+  00:19:57 =31,060  km/h

47  Daniele Nardello  Mapei-Quick Step06h 46' 57"+  00:23:10 =30,815  km/h

48  Bobby Julich  Credit Agricole06h 46' 57"+  00:23:10 =30,815  km/h

49  Benoit Salmon  AG2R-Decathlon06h 47' 05"+  00:23:18 =30,805  km/h

50  Stéphane Goubert  Jean Delatour06h 47' 20"+  00:23:33 =30,786  km/h

51  Mario Aerts  Lotto-Adecco06h 47' 20"+  00:23:33 =30,786  km/h

52  Stéphane Heulot  BigMat-Auber 9306h 47' 20"+  00:23:33 =30,786  km/h

53  Geert Verheyen  Rabobank06h 47' 20"+  00:23:33 =30,786  km/h

54  Sébastien Demarbaix  AG2R-Decathlon06h 47' 20"+  00:23:33 =30,786  km/h

55  Udo Bölts  Deutsche Telekom06h 47' 20"+  00:23:33 =30,786  km/h

56  Jörg Jaksche  O.N.C.E.-Eroski06h 47' 20"+  00:23:33 =30,786  km/h

57  Marcelino Garcia  CSC-Tiscali06h 47' 20"+  00:23:33 =30,786  km/h

58  Massimiliano Lelli  Cofidis Credit Par Telephone06h 47' 20"+  00:23:33 =30,786  km/h

59  Eladio Jimenez  ibanesto.com06h 48' 05"+  00:24:18 =30,729  km/h

60  Felix Garcia Casas  Festina06h 49' 08"+  00:25:21 =30,650  km/h

61  Jens Heppner  Deutsche Telekom06h 50' 43"+  00:26:56 =30,532  km/h

62  Antonio Tauler  Kelme-Costa Blanca06h 50' 43"+  00:26:56 =30,532  km/h

63  Michele Bartoli  Mapei-Quick Step06h 52' 43"+  00:28:56 =30,384  km/h

64  Iñigo Cuesta  Cofidis Credit Par Telephone06h 54' 05"+  00:30:18 =30,284  km/h

65  Haimar  Zubeldía  Euskaltel-Euskadi06h 54' 26"+  00:30:39 =30,258  km/h

66  Rik Verbrugghe  Lotto-Adecco06h 54' 58"+  00:31:11 =30,219  km/h

67  Fabio Baldato  Fassa Bortolo06h 55' 36"+  00:31:49 =30,173  km/h

68  Ludo Dierckxsens  Lampre-Daikin06h 55' 52"+  00:32:05 =30,154  km/h

69  Daniel Schnider  Francaise Des Jeux06h 55' 52"+  00:32:05 =30,154  km/h

70  Giuseppe Guerini  Deutsche Telekom06h 55' 52"+  00:32:05 =30,154  km/h

71  Nicki Sørensen  CSC-Tiscali06h 55' 52"+  00:32:05 =30,154  km/h

72  Mikel Pradera  O.N.C.E.-Eroski06h 55' 52"+  00:32:05 =30,154  km/h

73  David Moncoutié  Cofidis Credit Par Telephone06h 55' 52"+  00:32:05 =30,154  km/h

74  Patrice Halgand  Jean Delatour06h 55' 52"+  00:32:05 =30,154  km/h

75  Alberto Lopez  Euskaltel-Euskadi06h 55' 52"+  00:32:05 =30,154  km/h

76  Javier Pascual  ibanesto.com06h 55' 52"+  00:32:05 =30,154  km/h

77  Javier Rodriguez  Kelme-Costa Blanca06h 55' 52"+  00:32:05 =30,154  km/h

78  Jean-Cyril Robin  Bonjour06h 55' 52"+  00:32:05 =30,154  km/h

79  George Hincapie  US Postal Service06h 55' 52"+  00:32:05 =30,154  km/h

80  Félix Cárdenas  Kelme-Costa Blanca06h 55' 52"+  00:32:05 =30,154  km/h

81  Victor Hugo Peña  US Postal Service06h 55' 52"+  00:32:05 =30,154  km/h

82  Pascal Lino  Festina06h 55' 52"+  00:32:05 =30,154  km/h

83  Unai Etxebarria  Euskaltel-Euskadi06h 55' 52"+  00:32:05 =30,154  km/h

84  Christophe Oriol  Jean Delatour06h 55' 52"+  00:32:05 =30,154  km/h

85  Steffen Kjærgaard  US Postal Service06h 55' 52"+  00:32:05 =30,154  km/h

86  Raivis  Belohvoščiks  Lampre-Daikin06h 56' 27"+  00:32:40 =30,112  km/h

87  Stuart O'Grady  Credit Agricole06h 56' 49"+  00:33:02 =30,085  km/h

88  Gilles Bouvard  Jean Delatour06h 58' 36"+  00:34:49 =29,957  km/h

89  Xavier Jan  BigMat-Auber 9306h 59' 33"+  00:35:46 =29,889  km/h

90  Paolo Bettini  Mapei-Quick Step06h 59' 57"+  00:36:10 =29,861  km/h

91  Oscar Pozzi  Fassa Bortolo06h 59' 57"+  00:36:10 =29,861  km/h

92  Nicola Loda  Fassa Bortolo06h 59' 57"+  00:36:10 =29,861  km/h

93  Matteo Tosatto  Fassa Bortolo07h 00' 00"+  00:36:13 =29,857  km/h

94  Erik Zabel  Deutsche Telekom07h 04' 07"+  00:40:20 =29,567  km/h

95  Rolf Sørensen  CSC-Tiscali07h 04' 07"+  00:40:20 =29,567  km/h

96  Paul Van Hyfte  Lotto-Adecco07h 04' 07"+  00:40:20 =29,567  km/h

97  Servais Knaven  Domo-Farm Frites07h 04' 07"+  00:40:20 =29,567  km/h

98  Marco Serpellini  Lampre-Daikin07h 04' 07"+  00:40:20 =29,567  km/h

99  Steffen Wesemann  Deutsche Telekom07h 04' 07"+  00:40:20 =29,567  km/h

100  Frédéric Bessy  Credit Agricole07h 04' 07"+  00:40:20 =29,567  km/h

101  Robert Hunter  Lampre-Daikin07h 04' 07"+  00:40:20 =29,567  km/h

102  Bram de Groot  Rabobank07h 04' 07"+  00:40:20 =29,567  km/h

103  Jérôme Bernard  Jean Delatour07h 04' 07"+  00:40:20 =29,567  km/h

104  Michael Blaudzun  CSC-Tiscali07h 04' 07"+  00:40:20 =29,567  km/h

105  Marc Wauters  Rabobank07h 04' 07"+  00:40:20 =29,567  km/h

106  Serguei Ivanov  Fassa Bortolo07h 04' 07"+  00:40:20 =29,567  km/h

107  Gilles Maignan  AG2R-Decathlon07h 04' 07"+  00:40:20 =29,567  km/h

108  Jon Odriozola  ibanesto.com07h 04' 07"+  00:40:20 =29,567  km/h

109  Tyler Hamilton  US Postal Service07h 04' 07"+  00:40:20 =29,567  km/h

110  Fred Rodriguez  Domo-Farm Frites07h 04' 07"+  00:40:20 =29,567  km/h

111  Christopher Jenner  Credit Agricole07h 04' 07"+  00:40:20 =29,567  km/h

112  Thierry Gouvenou  BigMat-Auber 9307h 04' 07"+  00:40:20 =29,567  km/h

113  Luis Pérez Rodriguez  Festina07h 04' 07"+  00:40:20 =29,567  km/h

114  Piotr Wadecki  Domo-Farm Frites07h 04' 07"+  00:40:20 =29,567  km/h

115  Jakob Piil  CSC-Tiscali07h 04' 07"+  00:40:20 =29,567  km/h

116  Anthony Morin  Credit Agricole07h 04' 07"+  00:40:20 =29,567  km/h

117  Frédéric Guesdon  Francaise Des Jeux07h 04' 07"+  00:40:20 =29,567  km/h

118  Sébastien Hinault  Credit Agricole07h 04' 07"+  00:40:20 =29,567  km/h

119  Nicolas Vogondy  Francaise Des Jeux07h 04' 07"+  00:40:20 =29,567  km/h

120  Franck Bouyer  Bonjour07h 04' 07"+  00:40:20 =29,567  km/h

121  Enrico Cassani  Domo-Farm Frites07h 04' 07"+  00:40:20 =29,567  km/h

122  Damien Nazon  Bonjour07h 04' 07"+  00:40:20 =29,567  km/h

123  Thor Hushovd  Credit Agricole07h 04' 07"+  00:40:20 =29,567  km/h

124  Alexei Sivakov  BigMat-Auber 9307h 04' 07"+  00:40:20 =29,567  km/h

125  Franck Renier  Bonjour07h 04' 07"+  00:40:20 =29,567  km/h

126  Nico Mattan  Cofidis Credit Par Telephone07h 04' 07"+  00:40:20 =29,567  km/h

127  Jens Voigt  Credit Agricole07h 04' 07"+  00:40:20 =29,567  km/h

128  Ján Svorada  Lampre-Daikin07h 04' 07"+  00:40:20 =29,567  km/h

129  José Angel Vidal  Kelme-Costa Blanca07h 04' 07"+  00:40:20 =29,567  km/h

130  Nicolas Jalabert  CSC-Tiscali07h 04' 07"+  00:40:20 =29,567  km/h

131  Davide Bramati  Mapei-Quick Step07h 04' 07"+  00:40:20 =29,567  km/h

132  Marc Lotz  Rabobank07h 04' 07"+  00:40:20 =29,567  km/h

133  José Ivan Gutierrez  O.N.C.E.-Eroski07h 04' 07"+  00:40:20 =29,567  km/h

134  Eddy Seigneur  Jean Delatour07h 04' 07"+  00:40:20 =29,567  km/h

135  Emmanuel Magnien  Francaise Des Jeux07h 04' 07"+  00:40:20 =29,567  km/h

136  Ludovic Turpin  AG2R-Decathlon07h 04' 07"+  00:40:20 =29,567  km/h

137  Álvaro Gonzalez De Galdeano  O.N.C.E.-Eroski07h 04' 07"+  00:40:20 =29,567  km/h

138  Angel Castresana  Euskaltel-Euskadi07h 04' 07"+  00:40:20 =29,567  km/h

139  Serge Baguet  Lotto-Adecco07h 04' 07"+  00:40:20 =29,567  km/h

140  José Garcia Acosta  ibanesto.com07h 04' 07"+  00:40:20 =29,567  km/h

141  Bradley McGee  Francaise Des Jeux07h 04' 07"+  00:40:20 =29,567  km/h

142  Christophe  Agnolutto  AG2R-Decathlon07h 04' 07"+  00:40:20 =29,567  km/h

143  Romāns Vainšteins  Domo-Farm Frites07h 04' 07"+  00:40:20 =29,567  km/h

144  Francisco Cerezo  CSC-Tiscali07h 04' 07"+  00:40:20 =29,567  km/h

145  Pascal Chanteur  Festina07h 04' 07"+  00:40:20 =29,567  km/h

146  Johan Museeuw  Domo-Farm Frites07h 04' 07"+  00:40:20 =29,567  km/h

147  Erik Dekker  Rabobank07h 04' 07"+  00:40:20 =29,567  km/h

148  Sébastien Talabardon  BigMat-Auber 9307h 04' 07"+  00:40:20 =29,567  km/h

149  Max van Heeswijk  Domo-Farm Frites07h 04' 07"+  00:40:20 =29,567  km/h

150  Bart Leysen  Mapei-Quick Step07h 04' 07"+  00:40:20 =29,567  km/h

151  Florent Brard  Festina07h 04' 07"+  00:40:20 =29,567  km/h

152  Rubens Bertogliati  Lampre-Daikin07h 04' 07"+  00:40:20 =29,567  km/h

153  Christophe Mengin  Francaise Des Jeux07h 04' 07"+  00:40:20 =29,567  km/h

154  Viatcheslav Ekimov  US Postal Service07h 04' 07"+  00:40:20 =29,567  km/h

155  Ludovic Auger  BigMat-Auber 9307h 04' 07"+  00:40:20 =29,567  km/h

156  Johan Verstrepen  Lampre-Daikin07h 04' 07"+  00:40:20 =29,567  km/h

157  Guillaume Auger  BigMat-Auber 9307h 04' 07"+  00:40:20 =29,567  km/h

158  Matteo Frutti  Lampre-Daikin07h 04' 07"+  00:40:20 =29,567  km/h

159  Sven Teutenberg  Festina07h 04' 07"+  00:40:20 =29,567  km/h

160  Marco Milesi  Domo-Farm Frites07h 04' 07"+  00:40:20 =29,567  km/h

161  Stéphane  Berges  AG2R-Decathlon07h 04' 07"+  00:40:20 =29,567  km/h

162  Jacky Durand  Francaise Des Jeux07h 04' 07"+  00:40:20 =29,567  km/h

163  Christophe Capelle  BigMat-Auber 9307h 04' 07"+  00:40:20 =29,567  km/h

164  Alessandro Petacchi  Fassa Bortolo07h 05' 14"+  00:41:27 =29,490  km/h

165  Olivier Perraudeau  Bonjour07h 05' 35"+  00:41:48 =29,465  km/h

166  Jimmy Casper  Francaise Des Jeux07h 05' 52"+  00:42:05 =29,446  km/h


Withdrawls: 7
 RiderTeamReason
33   Angel Luis Casero FestinaDid not finish
71   David Millar Cofidis Credit Par TelephoneDid not finish
88   Tom Steels Mapei-Quick StepDid not finish
125   Ludovic Capelle AG2R-DecathlonDid not finish
127   Jaan Kirsipuu AG2R-DecathlonDid not finish
136   Nicolay Bo Larsen CSC-TiscaliDid not finish
154   Aitor Gonzalez Kelme-Costa BlancaDid not finish
Todays birthdays.

1858 • Aimé Monin
1894 • Camille Nicou
1902 • Louis Millo
1902 • Aleardo Simoni
1903 • Jean-Gabriel Zenon
1926 • Isidoor De Ryck
1931 • Miguel Pacheco
1946 • Stéphane Abrahamian
1956 • Siegfried Hekimi
1957 • Peter Winnen
1958 • Marcel Russenberger
1958 • Patrick Versluys
1981 • Daniel Moreno
1984 • Chris Anker Sørensen
1989 • Joey Rosskopf

 

Optimized for Chrome - Edge
and Opera browsers.